Regional Weather Roundup
Issued by NWS Upton, NY

Current Version | Previous Version | Graphics & Text | Print | Product List | Glossary Off
Versions: 1 2 3 4 5 6 7 8 9 10 11 12 13 14 15 16 17 18 19 20 21 22 23 24 25 26 27 28 29 30 31 32 33 34 35 36 37 38 39 40 41 42 43 44 45 46 47 48 49 50

000
ASUS41 KOKX 021704
RWROKX

REGIONAL WEATHER ROUNDUP
NATIONAL WEATHER SERVICE NEW YORK NY
100 PM EDT WED SEP 02 2015

NOTE: "FAIR" INDICATES FEW OR NO CLOUDS BELOW 12,000 FEET WITH NO
SIGNIFICANT WEATHER AND/OR OBSTRUCTIONS TO VISIBILITY.

NYZ071-072-176-178-NJZ106-104-021800-
NEW YORK CITY METRO AREA


CITY           SKY/WX    TMP DP  RH WIND       PRES   REMARKS
CENTRAL PARK   SUNNY     90  64  42 VRB3      30.00F HX  91
LAGUARDIA APRT PTSUNNY   87  65  47 CALM      29.97F
KENNEDY INTL   PTSUNNY   84  66  54 S12       30.00F
NEWARK/LIBERTY PTSUNNY   89  68  49 S9        29.97F HX  93
BRNX BOT. GARD   N/A     86  64  48 SW6       29.98F
TETERBORO      PTSUNNY   87  63  44 CALM      29.96F
$$

NYZ177-179-078>081-021800-
LONG ISLAND NEW YORK

CITY           SKY/WX    TMP DP  RH WIND       PRES   REMARKS
FARMINGDALE    SUNNY     85  65  51 SW10      29.99F
ISLIP          PTSUNNY   85  61  44 S15       29.97F
SHIRLEY        SUNNY     85  66  53 S13       29.99F
WESTHAMPTON    SUNNY     84  63  49 S13       30.00F
MONTAUK POINT    N/A     81  70  69 S7        30.00F
$$

NYZ052-065-067-021800-
HUDSON VALLEY

CITY           SKY/WX    TMP DP  RH WIND       PRES   REMARKS
WHITE PLAINS   MOSUNNY   88  61  40 VRB5      29.98F
NEWBURGH       MOSUNNY   84  66  54 SW7       30.00F
MONTGOMERY     MOSUNNY   88  64  44 VRB5      29.97F
POUGHKEEPSIE   SUNNY     87  64  46 CALM      29.96F
ALBANY         MOSUNNY   85  66  53 N5        29.98F
$$

NJZ001-105-106-008-010-013-015-019>022-104-021800-
NEW JERSEY

CITY           SKY/WX    TMP DP  RH WIND       PRES   REMARKS
NEWARK/LIBERTY PTSUNNY   89  68  49 S9        29.97F HX  93
TETERBORO      PTSUNNY   87  63  44 CALM      29.96F
CALDWELL       MOSUNNY   89  65  44 VRB3      29.97F HX  91
MORRISTOWN     PTSUNNY   91  64  40 SW5       29.97F HX  93
SOMERVILLE     PTSUNNY   89  64  43 CALM      29.95F HX  90
SUSSEX         SUNNY     87  64  46 MISG      29.99F
ANDOVER          N/A     85  65  51 CALM      30.00F
TRENTON        MOSUNNY   84  70  62 S5        29.98F
MILLVILLE      PTSUNNY   87  67  51 NW3       30.00F HX  90
ATLANTIC CITY  CLOUDY    85  70  60 E7        30.00F
WRIGHTSTOWN    PTSUNNY   85  72  65 SW2       29.97F HX  91
TOMS RIVER     PTSUNNY   88  66  48 S6        29.99F HX  90
BELMAR         PTSUNNY   84  68  58 S8        30.00S
$$

PAZ047>061-062-071-021800-
EASTERN PENNSYLVANIA

CITY           SKY/WX    TMP DP  RH WIND       PRES   REMARKS
PHILADELPHIA   CLOUDY    88  64  44 W7        29.99F
ALLENTOWN      SUNNY     88  67  49 CALM      29.99F HX  91
SCRANTON       SUNNY     85  65  51 W9        30.02F
$$

CTZ002-004>006-009-010-012-RIZ004-006-007-MAZ004-011-015-021800-
SOUTHERN NEW ENGLAND
 IN CT

CITY           SKY/WX    TMP DP  RH WIND       PRES   REMARKS
BRADLEY INTL   MOSUNNY   86  64  47 SW7       29.95F
HARTFORD       SUNNY     88  62  41 NW8       29.95F
DANBURY        MOSUNNY   84  63  49 CALM      29.99F
WTRBRY/OXFORD  MOSUNNY   84  64  51 VRB5      30.02F
BRIDGEPORT     SUNNY     85  69  58 SW12      29.97F
MERIDEN        SUNNY     88  61  40 W8        29.96F
NEW HAVEN      MOSUNNY   82  68  62 SW10      29.97F
CHESTER        NOT AVBL
GROTON         SUNNY     79  72  79 SW9       29.97F
WILLIMANTIC    SUNNY     87  62  43 W8        29.96F

 IN RI

CITY           SKY/WX    TMP DP  RH WIND       PRES   REMARKS
PROVIDENCE     MOSUNNY   88  62  41 SW10      29.96F
BLOCK ISLAND   SUNNY     81  70  69 SW13      30.00F
WESTERLY       SUNNY     81  68  64 SW10      29.99F

 IN MA

CITY           SKY/WX    TMP DP  RH WIND       PRES   REMARKS
BOSTON         SUNNY     88  64  44 W12G21    29.94F
WORCESTER      SUNNY     81  62  52 SW13      29.99F
WESTFIELD      MOSUNNY   87  63  44 W9        29.96F
PROVINCETOWN     N/A     81  64  57 SW16      29.96F
NANTUCKET        N/A    N/A N/A N/A MISG      30.00F
$$

ANZ330-335-338-340-345-350-353-355-021800-
COASTAL MARINE OBSERVATIONS


STATION/POSITION TIME  SKY/WX   TEMP    WIND        PRES    VSBY  WAVE
                                AIR SEA DIR/SP/G                  HT/PER
                 (UTC)          (F)     (DEG/KT/KT) (MB)    (MI)  (FT/S)
NY HARB ENTRANCE 1550            76 78  190/  8/  8 1015.9          1/ 7
4S FIRE IS       NOT AVBL
20S FIRE ISLAND  1550            75 75  180/  6/  6 1016.2          2/ 8
GREAT SOUTH BAY  1615            76 80  220/  8/  8   N/A
23SW MTP         1650            74 74  230/  6/  8 1015.5          1/ 8
HUDSON CANYON    NOT AVBL
KINGS POINT      1600            81 74  190/  5/  6 1015.0
EXECUTION ROCKS  1600            81     180/  6/  8   N/A
CENTRAL LI SOUND NOT AVBL
EASTERN LI SOUND 1615            77 71  210/  4/  6   N/A
ROBBINS REEF     1600            76     160/ 14/ 15 1014.5
$$


>>>>>>>>>>>>>>>>>>>>>>>>>>>> KEY <<<<<<<<<<<<<<<<<<<<<<<<<<<
>                                                          <
>     SKY/WX - SKY CONDITION/PRESENT WEATHER               <
>     TMP    - TEMPERATURE IN FAHRENHEIT                   <
>     DP     - DEWPOINT IN FAHRENHEIT                      <
>     RH     - RELATIVE HUMIDITY IN PERCENT                <
>     WIND   - DIRECTION AND SPEED IN MPH                  <
>     PRES   - MEAN SEA LEVEL PRESSURE IN INCHES OF HG     <
>     WCI    - WIND CHILL INDEX                            <
>     VSB    - VISIBILITY IN MILES                         <
>     HX     - HEAT INDEX                                  <
>     TC     - TEMPERATURE IN CELSIUS                      <
>     VRB    - VARIABLE WIND DIRECTION                     <
>                                                          <
>>>>>>>>>>>>>>>>>>>>>>>>>>>> KEY <<<<<<<<<<<<<<<<<<<<<<<<<<<





USA.gov is the U.S. government's official web portal to all federal, state and local government web resources and services.